Content
SEND FEEDBACK

United States of America Flag

BARCELONETA, PUERTO RICO


Home > North America > United States > Puerto Rico
Elevation: 1 foot     Latitude: 18 29N     Longitude: 066 32W

WEATHER
 
SELECT A DAY
Number of Records: 172,237;   Date Range: 7/1/96 - 3/22/16
 
SHARE

PRINT THIS DATA

[ ← Previous Day ]
WEATHER ALMANAC - JANUARY 30, 2013
[ Next Day → ]
[ °C ]   °F
Weather ElementAverageHighLow
Temperature76.9 °F82 °F (10:56 am)73 °F (4:56 am)
Dewpoint69.1 °F71.1 °F (9:56 pm)66.9 °F (2:56 pm)
Humidity77.3 %91 % (11:56 pm)64 % (2:56 pm)
Barometer30.07 in30.11 in (9:56 am)30.04 in (2:56 pm)
Wind Speed10.9 mph19.6 mph (1:56 pm)
Wind Gust26.5 mph (10:56 am)
Weather ElementAverage
Visibility9.8 mi
Wind DirectionENE (72.6 °)

Weather ElementTotal
Precipitation0.12 in
Cooling Degree Days12.5 (Base 65)
Growing Degree Days27.5 (Base 50)
Averaged from 23 records on January 30, 2013
WEATHER CONDITIONS BREAKOUT
WIND DIRECTION BREAKOUT
WEATHER BY HOUR - JANUARY 30, 2013
[ °C ]   °F
Local TimeTemperatureDewpointHumidityBarometerVisibilityWind DirectionWind SpeedGust SpeedPrecipitationEventsConditions
1:56 AM73.9 °F69.1 °F85 %30.07 in10.0 miCalm0.00 inMostly Cloudy
2:56 AM75.0 °F69.1 °F82 %30.06 in10.0 miESE (120°)4.6 mph0.00 inMostly Cloudy
3:56 AM73.9 °F69.1 °F85 %30.05 in10.0 miESE (110°)3.5 mph0.04 inMostly Cloudy
4:56 AM73.0 °F69.1 °F87 %30.05 in10.0 miSE (130°)3.5 mphMostly Cloudy
5:56 AM73.9 °F69.1 °F85 %30.05 in10.0 miEast (100°)11.5 mph0.01 inMostly Cloudy
6:56 AM73.0 °F68.0 °F84 %30.06 in10.0 miCalmMostly Cloudy
7:56 AM75.0 °F69.1 °F82 %30.08 in10.0 miSE (130°)3.5 mph0.00 inScattered Clouds
8:56 AM77.0 °F69.1 °F76 %30.10 in10.0 miESE (110°)6.9 mph0.01 inScattered Clouds
9:56 AM79.0 °F68.0 °F69 %30.11 in10.0 miEast (80°)17.3 mph24.2 mphScattered Clouds
10:56 AM82.0 °F69.1 °F65 %30.11 in10.0 miEast (90°)18.4 mph26.5 mphScattered Clouds
11:56 AM80.1 °F69.1 °F69 %30.10 in10.0 miEast (80°)17.3 mphScattered Clouds
12:56 PM81.0 °F68.0 °F65 %30.08 in10.0 miENE (70°)18.4 mph26.5 mphScattered Clouds
1:56 PM81.0 °F70.0 °F69 %30.05 in10.0 miENE (70°)19.6 mph25.3 mph0.00 inRainLight Rain
2:56 PM80.1 °F66.9 °F64 %30.04 in10.0 miENE (60°)19.6 mph23.0 mph0.00 inScattered Clouds
3:56 PM81.0 °F68.0 °F65 %30.04 in10.0 miENE (60°)16.1 mphScattered Clouds
4:56 PM80.1 °F68.0 °F67 %30.04 in10.0 miENE (70°)15.0 mph23.0 mph0.00 inScattered Clouds
5:56 PM75.9 °F70.0 °F82 %30.04 in10.0 miENE (60°)10.4 mph0.00 inScattered Clouds
6:56 PM75.9 °F69.1 °F79 %30.05 in10.0 miENE (70°)11.5 mph0.00 inScattered Clouds
7:56 PM77.0 °F69.1 °F76 %30.06 in10.0 miENE (60°)12.7 mphScattered Clouds
8:56 PM75.9 °F69.1 °F79 %30.07 in10.0 miEast (80°)12.7 mphScattered Clouds
9:56 PM75.0 °F71.1 °F87 %30.08 in10.0 miENE (60°)12.7 mph0.01 inMostly Cloudy
10:56 PM75.9 °F71.1 °F85 %30.08 in6.0 miENE (60°)16.1 mph21.9 mph0.00 inRainLight Rain
11:56 PM73.9 °F71.1 °F91 %30.07 in10.0 miCalm0.05 inScattered Clouds
Hourly data recorded from TJIG, located miles away from Barceloneta, Puerto Rico




STORIES FROM OUR PARTNERS